Vorticity
nan nan nan nan nan nan nan nan nan nan nan nan nan nan nan nan nan nan nan nan nan nan nan nan nan nan nan nan nan nan nan nan nan nan nan nan nan nan nan nan nan nan nan nan nan nan nan nan nan nan nan nan nan nan nan nan nan nan nan nan nan nan nan nan nan nan nan nan nan
nan 7 8 7 5 4 6 9 9 9 9 9 10 10 9 8 8 8 9 8 9 9 9 9 10 11 13 12 10 9 9 9 9 8 8 7 7 8 8 8 8 8 8 8 7 7 8 8 7 7 7 8 9 8 8 9 10 9 9 6 7 9 10 10 11 11 11 10 nan
nan 6 6 7 6 6 6 8 9 9 8 8 10 10 9 8 9 9 9 9 9 9 9 9 11 12 12 10 8 10 10 10 10 8 7 7 7 8 8 8 8 8 7 7 7 7 8 8 7 7 7 8 8 7 8 10 11 10 10 9 8 9 9 10 11 12 12 12 nan
nan 5 5 8 9 6 4 7 10 8 6 6 8 10 9 9 9 10 10 10 9 8 8 10 10 11 11 10 9 9 10 11 10 9 7 7 8 8 8 8 8 7 8 8 8 8 8 8 7 8 9 9 9 7 7 9 9 9 10 11 9 9 8 9 10 10 10 10 nan
nan 5 4 9 10 5 3 8 10 6 4 6 9 9 7 7 8 9 10 10 8 8 9 10 10 11 11 12 11 9 9 11 10 7 8 8 8 8 9 8 8 7 8 9 9 9 9 7 7 8 9 9 8 8 8 8 7 7 7 9 9 9 9 8 9 9 9 8 nan
nan 5 4 9 10 5 4 11 12 6 5 8 11 9 6 6 8 10 10 8 9 10 10 9 8 10 11 11 10 8 7 8 9 8 9 8 7 8 9 8 8 7 8 9 10 9 9 7 7 8 8 8 8 8 9 9 7 7 6 7 8 9 9 9 9 9 9 7 nan
nan 7 6 9 9 5 6 10 10 8 7 11 13 9 5 6 9 10 8 6 8 10 9 8 9 9 9 9 8 7 7 7 8 9 8 8 7 8 8 8 8 8 8 9 9 9 8 7 7 8 8 8 8 10 11 10 9 8 6 6 8 9 10 9 8 9 9 8 nan
nan 9 8 9 9 8 7 8 7 7 7 10 13 11 7 7 8 7 5 5 7 9 9 10 11 10 9 8 7 7 7 7 7 8 8 8 8 7 7 8 8 8 9 9 9 8 8 7 7 8 8 8 8 11 13 12 10 8 7 6 7 8 9 8 7 8 9 9 nan
nan 11 10 10 10 9 9 8 8 7 7 9 12 11 8 7 7 5 3 4 9 9 9 10 12 11 9 8 7 7 7 8 8 7 7 8 7 6 6 7 8 8 8 10 11 9 7 6 7 7 7 7 7 8 10 11 9 8 7 8 7 7 7 8 7 8 9 10 nan
nan 9 9 9 11 10 9 9 9 9 8 9 10 10 9 7 5 3 2 6 10 10 9 10 11 10 9 7 7 7 7 8 9 9 8 8 7 6 6 7 8 7 7 9 11 10 8 7 7 7 6 7 8 7 7 8 8 6 5 7 7 6 6 7 7 8 9 9 nan
nan 8 7 9 11 9 8 8 8 8 8 9 10 9 9 7 4 4 5 9 11 11 8 9 11 9 7 7 7 8 8 8 10 10 9 8 8 7 7 7 8 7 6 7 9 9 8 8 8 7 6 6 9 9 8 7 8 7 4 5 7 7 7 6 7 8 10 11 nan
nan 7 7 9 11 9 7 6 6 8 9 9 9 8 8 7 7 7 8 10 10 8 7 9 11 8 6 6 9 9 9 9 10 9 9 9 8 9 8 8 8 8 7 7 7 8 8 8 8 7 6 5 8 9 10 9 8 8 6 5 6 7 7 6 7 7 9 11 nan
nan 8 7 9 10 8 6 4 5 9 10 9 8 7 7 9 10 9 9 8 6 5 7 10 10 8 7 8 9 9 10 10 9 8 8 8 9 9 9 9 9 8 8 7 7 8 8 8 8 8 7 6 5 7 9 10 9 8 7 6 6 6 6 7 7 7 7 8 nan
nan 8 8 9 9 6 6 4 4 9 12 10 7 7 7 10 11 9 9 8 6 5 7 9 8 9 10 10 9 10 9 9 9 8 8 8 9 9 9 8 9 8 7 8 8 9 8 8 8 8 8 7 5 6 8 9 9 9 8 8 7 7 7 8 8 8 7 7 nan
nan 8 8 8 7 5 6 4 4 9 12 9 7 7 7 10 11 10 9 9 7 6 7 8 8 10 11 11 10 11 10 9 10 9 8 7 8 9 8 8 8 7 7 7 8 9 10 9 9 9 9 8 7 7 8 9 9 9 8 8 8 8 8 8 8 8 8 8 nan
nan 7 7 8 6 4 5 3 4 10 12 10 8 7 7 9 11 11 10 8 6 7 9 9 8 9 12 11 11 10 10 10 10 9 8 8 8 8 8 7 7 7 7 7 7 8 9 10 10 10 9 8 8 8 8 8 9 9 8 8 8 8 8 8 8 8 9 8 nan
nan 7 7 8 7 4 3 2 4 10 12 11 9 7 6 8 10 12 11 7 6 8 10 8 7 9 11 10 9 10 9 9 9 9 9 8 8 8 7 7 7 8 8 8 7 7 8 8 10 11 11 9 9 9 9 9 9 9 9 9 8 8 8 8 8 9 9 9 nan
nan 7 8 9 8 6 4 3 5 9 11 10 8 7 7 8 10 11 11 9 8 10 9 7 7 9 11 9 7 8 9 9 8 8 8 9 9 9 8 7 8 9 10 10 10 9 8 8 9 9 10 10 10 10 9 9 9 9 9 9 9 9 9 9 9 9 9 10 nan
nan 7 8 9 8 7 6 4 5 8 9 9 7 8 8 9 10 9 9 10 10 10 9 6 6 9 11 10 7 8 8 9 10 8 8 9 9 9 8 8 8 10 11 11 11 10 9 9 9 8 9 9 9 9 9 9 9 9 9 10 9 9 9 9 9 9 9 9 nan
nan 7 8 9 9 8 7 6 6 7 7 9 10 10 9 9 9 9 8 9 10 10 9 8 7 7 9 10 9 7 6 9 12 10 8 8 9 9 8 9 9 10 11 11 11 10 9 9 9 9 9 8 8 8 8 9 9 9 9 10 10 10 9 9 9 9 9 9 nan
nan 8 8 9 9 8 8 7 7 8 8 10 11 10 9 9 9 9 9 9 8 9 9 8 8 8 8 8 8 6 5 9 12 11 10 10 10 9 9 10 10 10 10 10 10 9 9 9 9 9 9 9 8 8 7 8 9 9 8 8 9 9 9 9 9 9 9 9 nan
nan 8 10 11 10 9 8 8 8 9 9 10 10 10 9 9 9 9 9 9 9 9 8 8 9 9 8 8 7 6 5 8 11 11 10 10 11 11 11 12 11 10 9 9 9 10 9 10 10 10 9 9 9 8 7 7 8 9 9 8 8 8 9 9 9 10 10 10 nan
nan 9 10 12 12 11 9 8 9 9 9 9 10 10 10 9 9 9 8 10 9 7 7 8 10 11 10 9 8 7 7 7 8 9 10 10 10 11 12 12 12 10 8 8 9 9 9 11 12 11 10 9 9 9 9 8 8 8 9 9 9 9 10 10 10 10 11 11 nan
nan 8 8 12 15 12 9 9 9 9 9 9 9 10 9 9 8 9 9 10 10 8 6 7 10 12 11 10 11 10 9 8 7 8 8 9 10 10 11 11 11 9 7 8 7 5 3 5 9 11 11 10 10 11 11 10 9 9 9 9 9 10 10 11 11 11 11 11 nan
nan 9 8 11 14 11 10 10 10 9 8 9 9 9 9 9 8 9 9 9 9 9 8 7 9 10 11 11 12 12 10 9 9 8 7 7 9 9 9 9 9 9 9 10 9 4 -0 -3 -1 3 8 11 11 11 12 12 11 10 9 9 10 10 10 11 12 12 13 13 nan
nan 10 9 11 12 11 10 10 9 8 8 9 9 9 9 8 8 9 9 9 9 9 9 8 8 9 9 11 11 10 9 10 11 9 8 7 7 7 8 7 7 8 11 11 10 8 5 0 -4 -4 1 10 11 11 11 13 14 12 10 10 10 10 9 10 11 12 13 14 nan
nan 10 9 11 12 11 9 9 9 9 8 9 9 9 8 8 9 11 10 8 8 7 7 8 10 10 8 9 11 8 6 8 11 12 11 9 7 7 7 7 7 8 11 11 10 8 7 4 0 -1 1 5 10 11 10 11 12 12 12 11 11 10 9 9 11 12 13 13 nan
nan 10 9 11 11 10 8 9 9 9 9 9 9 8 8 9 10 10 9 8 7 6 6 7 9 9 8 11 12 9 8 8 10 11 11 10 9 8 7 7 8 8 9 8 7 6 5 3 3 3 3 3 10 12 12 11 11 12 12 12 12 11 11 11 13 13 13 12 nan
nan 10 10 10 10 8 8 9 10 9 9 9 9 9 9 9 9 8 8 8 7 5 4 6 8 9 11 12 12 10 9 9 10 11 11 10 9 8 7 7 9 10 11 8 5 5 4 3 4 5 5 6 10 11 12 12 11 11 12 12 12 12 11 12 11 11 11 11 nan
nan 10 11 10 9 8 9 9 9 8 7 9 11 10 9 8 8 8 8 8 5 4 5 9 11 12 12 10 9 9 8 9 10 11 11 10 8 7 8 8 8 10 12 10 6 5 3 3 4 6 7 9 11 12 12 11 11 11 11 11 11 11 11 11 10 9 8 8 nan
nan 10 11 10 9 9 9 9 9 9 8 10 12 10 9 8 8 7 6 5 5 8 10 13 13 10 9 9 9 9 8 9 9 10 11 11 9 8 9 9 8 9 11 10 6 5 4 3 5 6 7 10 13 14 14 13 12 11 11 10 10 10 11 11 11 10 8 7 nan
nan 10 10 10 9 8 9 9 10 10 10 11 11 9 8 7 5 6 7 7 8 9 10 11 11 9 7 8 9 9 9 9 9 9 10 9 8 8 10 10 10 10 10 9 7 5 4 4 5 6 7 10 15 16 16 15 13 12 11 11 11 11 10 9 10 10 9 8 nan
nan 10 10 9 8 8 9 10 10 11 11 10 10 9 8 5 5 8 9 9 9 9 9 10 10 8 7 7 7 8 10 10 10 9 9 9 8 8 8 8 11 12 11 9 7 6 5 4 5 6 7 11 18 19 17 14 12 11 11 12 12 12 11 9 8 8 9 9 nan
nan 10 10 9 8 8 9 10 10 11 11 10 9 9 7 6 7 7 7 7 7 9 11 12 10 9 9 8 8 10 11 10 10 10 10 10 10 8 7 6 9 12 10 8 6 5 4 4 5 6 8 16 21 19 15 11 9 9 10 11 11 10 10 9 8 8 9 9 nan
nan 10 9 9 8 9 10 10 11 11 10 9 9 8 8 8 7 6 7 6 6 8 11 11 11 11 10 11 13 14 13 11 10 11 11 10 10 9 7 5 7 11 9 7 5 5 5 5 6 7 10 20 22 17 12 9 9 10 10 10 9 9 8 9 9 10 10 10 nan
nan 10 9 8 9 10 10 10 10 10 10 9 8 8 7 7 7 9 10 7 5 8 10 10 11 10 9 9 11 13 15 13 11 11 11 10 9 8 7 6 8 12 12 8 6 6 6 7 7 9 13 21 19 14 11 10 11 11 11 10 9 9 9 10 10 10 10 10 nan
nan 10 9 8 9 10 10 10 10 10 9 8 8 8 7 6 5 8 11 8 5 9 8 8 9 9 8 7 7 10 13 13 12 13 12 9 7 6 7 7 9 13 14 10 7 7 8 9 9 11 14 18 15 11 10 10 11 12 12 11 11 11 11 11 12 11 10 8 nan
nan 10 9 8 9 9 10 10 10 10 8 6 6 8 8 6 6 8 11 7 5 9 7 6 8 9 10 9 8 9 11 11 11 12 11 10 7 7 7 7 7 11 13 11 8 8 8 10 10 10 11 12 12 11 10 10 10 11 12 11 11 12 11 11 12 12 11 7 nan
nan 11 10 9 9 10 10 10 10 9 8 6 6 8 7 5 8 11 11 6 7 10 9 8 9 10 12 11 8 9 9 10 11 10 9 10 9 8 6 5 6 9 12 11 8 8 9 9 9 8 8 12 14 12 11 10 10 10 11 10 10 10 11 11 10 11 11 8 nan
nan 11 10 10 10 10 10 10 8 7 8 9 9 7 5 5 8 11 9 7 9 12 11 10 11 11 13 11 8 8 8 8 10 11 10 10 11 10 6 5 7 9 11 11 9 8 9 9 8 7 9 14 15 13 11 10 10 10 10 9 9 9 10 11 11 10 11 11 nan
nan nan nan nan nan nan nan nan nan nan nan nan nan nan nan nan nan nan nan nan nan nan nan nan nan nan nan nan nan nan nan nan nan nan nan nan nan nan nan nan nan nan nan nan nan nan nan nan nan nan nan nan nan nan nan nan nan nan nan nan nan nan nan nan nan nan nan nan nan
CAPE
nan nan nan nan nan nan nan nan nan nan nan nan nan nan nan nan nan nan nan nan nan nan nan nan nan nan nan nan nan nan nan nan nan nan nan nan nan nan nan nan nan nan nan nan nan nan nan nan nan nan nan nan nan nan nan nan nan nan nan nan nan nan nan nan nan nan nan nan nan
nan nan nan nan nan nan nan nan nan nan nan nan nan nan nan nan nan nan nan nan nan nan nan nan nan nan nan nan nan nan nan nan nan nan nan nan nan nan nan nan nan nan nan nan nan nan nan nan nan nan nan nan nan nan nan nan nan nan nan nan nan nan nan nan nan nan nan nan nan
nan nan nan nan nan nan nan nan nan nan nan nan nan nan nan nan nan nan nan nan nan nan nan nan nan nan nan nan nan nan nan nan nan nan nan nan nan nan nan nan nan nan nan nan nan nan nan nan nan nan nan nan nan nan nan nan nan nan nan nan nan nan nan nan nan nan nan nan nan
nan nan nan nan nan nan nan nan nan nan nan nan nan nan nan nan nan nan nan nan nan nan nan nan nan nan nan nan nan nan nan nan nan nan nan nan nan nan nan nan nan nan nan nan nan nan nan nan nan nan nan nan nan nan nan nan nan nan nan nan nan nan nan nan nan nan nan nan nan
nan nan nan nan nan nan nan nan nan nan nan nan nan nan nan nan nan nan nan nan nan nan nan nan nan nan nan nan nan nan nan nan nan nan nan nan nan nan nan nan nan nan nan nan nan nan nan nan nan nan nan nan nan nan nan nan nan nan nan nan nan nan nan nan nan nan nan nan nan
nan nan nan nan nan nan nan nan nan nan nan nan nan nan nan nan nan nan nan nan nan nan nan nan nan nan nan nan nan nan nan nan nan nan nan nan nan nan nan nan nan nan nan nan nan nan nan nan nan nan nan nan nan nan nan nan nan nan nan nan nan nan nan nan nan nan nan nan nan
nan nan nan nan nan nan nan nan nan nan nan nan nan nan nan nan nan nan nan nan nan nan nan nan nan nan nan nan nan nan nan nan nan nan nan nan nan nan nan nan nan nan nan nan nan nan nan nan nan nan nan nan nan nan nan nan nan nan nan nan nan nan nan nan nan nan nan nan nan
nan nan nan nan nan nan nan nan nan nan nan nan nan nan nan nan nan nan nan nan nan nan nan nan nan nan nan nan nan nan nan nan nan nan nan nan nan nan nan nan nan nan nan nan nan nan nan nan nan nan nan nan nan nan nan nan nan nan nan nan nan nan nan nan nan nan nan nan nan
nan nan nan nan nan nan nan nan nan nan nan nan nan nan nan nan nan nan nan nan nan nan nan nan nan nan nan nan nan nan nan nan nan nan nan nan nan nan nan nan nan nan nan nan nan nan nan nan nan nan nan nan nan nan nan nan nan nan nan nan nan nan nan nan nan nan nan nan nan
nan nan nan nan nan nan nan nan nan nan nan nan nan nan nan nan nan nan nan nan nan nan nan nan nan nan nan nan nan nan nan nan nan nan nan nan nan nan nan nan nan nan nan nan nan nan nan nan nan nan nan nan nan nan nan nan nan nan nan nan nan nan nan nan nan nan nan nan nan
nan nan nan nan nan nan nan nan nan nan nan nan nan nan nan nan nan nan nan nan nan nan nan nan nan nan nan nan nan nan nan nan nan nan nan nan nan nan nan nan nan nan nan nan nan nan nan nan nan nan nan nan nan nan nan nan nan nan nan nan nan nan nan nan nan nan nan nan nan
nan nan nan nan nan nan nan nan nan nan nan nan nan nan nan nan nan nan nan nan nan nan nan nan nan nan nan nan nan nan nan nan nan nan nan nan nan nan nan nan nan nan nan nan nan nan nan nan nan nan nan nan nan nan nan nan nan nan nan nan nan nan nan nan nan nan nan nan nan
nan nan nan nan nan nan nan nan nan nan nan nan nan nan nan nan nan nan nan nan nan nan nan nan nan nan nan nan nan nan nan nan nan nan nan nan nan nan nan nan nan nan nan nan nan nan nan nan nan nan nan nan nan nan nan nan nan nan nan nan nan nan nan nan nan nan nan nan nan
nan nan nan nan nan nan nan nan nan nan nan nan nan nan nan nan nan nan nan nan nan nan nan nan nan nan nan nan nan nan nan nan nan nan nan nan nan nan nan nan nan nan nan nan nan nan nan nan nan nan nan nan nan nan nan nan nan nan nan nan nan nan nan nan nan nan nan nan nan
nan nan nan nan nan nan nan nan nan nan nan nan nan nan nan nan nan nan nan nan nan nan nan nan nan nan nan nan nan nan nan nan nan nan nan nan nan nan nan nan nan nan nan nan nan nan nan nan nan nan nan nan nan nan nan nan nan nan nan nan nan nan nan nan nan nan nan nan nan
nan nan nan nan nan nan nan nan nan nan nan nan nan nan nan nan nan nan nan nan nan nan nan nan nan nan nan nan nan nan nan nan nan nan nan nan nan nan nan nan nan nan nan nan nan nan nan nan nan nan nan nan nan nan nan nan nan nan nan nan nan nan nan nan nan nan nan nan nan
nan nan nan nan nan nan nan nan nan nan nan nan nan nan nan nan nan nan nan nan nan nan nan nan nan nan nan nan nan nan nan nan nan nan nan nan nan nan nan nan nan nan nan nan nan nan nan nan nan nan nan nan nan nan nan nan nan nan nan nan nan nan nan nan nan nan nan nan nan
nan nan nan nan nan nan nan nan nan nan nan nan nan nan nan nan nan nan nan nan nan nan nan nan nan nan nan nan nan nan nan nan nan nan nan nan nan nan nan nan nan nan nan nan nan nan nan nan nan nan nan nan nan nan nan nan nan nan nan nan nan nan nan nan nan nan nan nan nan
nan nan nan nan nan nan nan nan nan nan nan nan nan nan nan nan nan nan nan nan nan nan nan nan nan nan nan nan nan nan nan nan nan nan nan nan nan nan nan nan nan nan nan nan nan nan nan nan nan nan nan nan nan nan nan nan nan nan nan nan nan nan nan nan nan nan nan nan nan
nan nan nan nan nan nan nan nan nan nan nan nan nan nan nan nan nan nan nan nan nan nan nan nan nan nan nan nan nan nan nan nan nan nan nan nan nan nan nan nan nan nan nan nan nan nan nan nan nan nan nan nan nan nan nan nan nan nan nan nan nan nan nan nan nan nan nan nan nan
nan nan nan nan nan nan nan nan nan nan nan nan nan nan nan nan nan nan nan nan nan nan nan nan nan nan nan nan nan nan nan nan nan nan nan nan nan nan nan nan nan nan nan nan nan nan nan nan nan nan nan nan nan nan nan nan nan nan nan nan nan nan nan nan nan nan nan nan nan
nan nan nan nan nan nan nan nan nan nan nan nan nan nan nan nan nan nan nan nan nan nan nan nan nan nan nan nan nan nan nan nan nan nan nan nan nan nan nan nan nan nan nan nan nan nan nan nan nan nan nan nan nan nan nan nan nan nan nan nan nan nan nan nan nan nan nan nan nan
nan nan nan nan nan nan nan nan nan nan nan nan nan nan nan nan nan nan nan nan nan nan nan nan nan nan nan nan nan nan nan nan nan nan nan nan nan nan nan nan nan nan nan nan nan nan nan nan nan nan nan nan nan nan nan nan nan nan nan nan nan nan nan nan nan nan nan nan nan
nan nan nan nan nan nan nan nan nan nan nan nan nan nan nan nan nan nan nan nan nan nan nan nan nan nan nan nan nan nan nan nan nan nan nan nan nan nan nan nan nan nan nan nan nan nan nan nan nan nan nan nan nan nan nan nan nan nan nan nan nan nan nan nan nan nan nan nan nan
nan nan nan nan nan nan nan nan nan nan nan nan nan nan nan nan nan nan nan nan nan nan nan nan nan nan nan nan nan nan nan nan nan nan nan nan nan nan nan nan nan nan nan nan nan nan nan nan nan nan nan nan nan nan nan nan nan nan nan nan nan nan nan nan 1 1 0 nan nan
nan nan nan nan nan nan nan nan nan nan nan nan nan nan nan nan nan nan nan nan nan nan nan nan nan nan nan nan nan nan nan nan nan nan nan nan nan nan nan nan nan nan nan nan nan nan nan nan nan nan nan nan nan nan nan nan nan nan nan nan nan nan nan nan 2 2 1 nan nan
nan nan nan nan nan nan nan nan nan nan nan nan nan nan nan nan nan nan nan nan nan nan nan nan nan nan nan nan nan nan nan nan nan nan nan nan nan nan nan nan nan nan nan nan nan nan nan 0 1 1 nan nan nan nan nan nan nan nan nan nan nan nan nan 1 9 9 8 2 nan
nan nan nan nan nan nan nan nan nan nan nan nan nan nan nan nan nan nan nan nan nan nan nan nan nan nan nan nan nan nan nan nan nan nan nan nan nan nan nan nan nan nan nan nan nan nan nan 0 0 0 1 nan nan nan nan nan nan nan nan nan nan 2 2 8 10 10 7 1 nan
nan nan nan nan nan nan nan nan nan nan nan nan nan nan nan nan nan nan nan nan nan nan nan nan nan nan nan nan nan nan nan nan nan nan nan nan nan nan nan nan nan nan nan nan nan nan 0 0 0 0 2 1 nan nan nan nan nan nan nan nan 0 0 0 1 5 5 0 nan nan
nan nan nan nan nan nan nan nan nan nan nan nan nan nan nan nan nan nan nan nan nan nan nan nan nan nan nan nan nan nan nan nan nan nan nan nan nan nan nan nan nan nan nan nan nan nan 0 nan 0 0 2 6 nan nan nan nan nan 0 0 0 0 2 2 0 nan nan nan nan nan
nan nan nan nan nan nan nan nan nan nan nan nan nan nan nan nan nan nan nan nan nan nan nan nan nan nan nan nan nan nan nan nan nan nan nan nan nan nan nan nan nan nan nan nan nan nan 0 nan 0 0 2 6 4 nan nan 4 1 nan nan nan nan nan nan nan nan nan nan nan nan
nan nan nan nan nan nan nan nan nan nan nan nan nan nan nan nan nan nan nan nan nan nan nan nan nan nan nan nan nan nan nan nan nan nan nan nan nan nan nan nan nan nan nan nan nan nan 0 1 1 1 4 8 18 12 12 5 nan nan nan nan nan nan nan nan nan nan nan nan nan
nan nan nan nan nan nan nan nan nan nan nan nan nan nan nan nan nan nan nan nan nan nan nan nan nan nan nan nan nan nan nan nan nan nan nan nan nan nan nan nan nan nan nan nan nan nan 0 1 2 2 6 9 15 1 1 nan nan nan nan nan nan nan nan nan nan nan nan nan nan
nan nan nan nan nan nan nan nan nan nan nan nan nan nan nan nan nan nan nan nan nan nan nan nan nan nan nan nan nan nan nan nan nan nan nan nan nan nan nan nan nan nan nan nan nan nan 1 2 3 3 7 13 nan nan nan nan nan nan nan nan nan nan nan nan nan nan nan nan nan
nan nan nan nan nan nan nan nan nan nan nan nan nan nan nan nan nan nan nan nan nan nan nan nan nan nan nan nan nan nan nan nan nan nan nan nan nan nan nan nan nan nan nan nan nan nan 3 4 4 4 8 13 nan nan nan nan nan nan nan nan nan nan nan nan nan nan nan nan nan
nan nan nan nan nan nan nan nan nan nan nan nan nan nan nan nan nan nan nan nan nan nan nan nan nan nan nan nan nan nan nan nan nan nan nan nan nan nan nan nan nan nan nan nan 0 0 8 13 10 10 10 1 nan nan nan nan nan nan nan nan nan nan nan nan nan nan nan nan nan
nan nan nan nan nan nan nan nan nan nan nan nan nan nan nan nan nan nan nan nan nan nan nan nan nan nan nan nan nan nan nan nan nan nan nan nan nan nan nan nan nan nan nan nan 0 0 5 10 14 14 14 nan nan nan nan nan nan nan nan nan nan nan nan nan nan nan nan nan nan
nan nan nan nan nan nan nan nan nan nan nan nan nan nan nan nan nan nan nan nan nan nan nan nan nan nan nan nan nan nan nan nan nan nan nan nan nan nan nan nan nan nan nan nan nan nan 2 7 15 15 10 nan nan nan nan nan nan nan nan nan nan nan nan nan nan nan nan nan nan
nan nan nan nan nan nan nan nan nan nan nan nan nan nan nan nan nan nan nan nan nan nan nan nan nan nan nan nan nan nan nan nan nan nan nan nan nan nan nan nan nan nan nan nan nan nan 0 5 11 11 13 nan nan nan nan nan nan nan nan nan nan nan nan nan nan nan nan nan 4
nan nan nan nan nan nan nan nan nan nan nan nan nan nan nan nan nan nan nan nan nan nan nan nan nan nan nan nan nan nan nan nan nan nan nan nan nan nan nan nan nan nan nan nan nan nan nan 4 10 10 13 nan nan nan nan nan nan nan nan nan nan nan nan nan nan nan nan nan 7
nan nan nan nan nan nan nan nan nan nan nan nan nan nan nan nan nan nan nan nan nan nan nan nan nan nan nan nan nan nan nan nan nan nan nan nan nan nan nan nan nan nan nan nan nan nan 1 5 9 9 12 nan nan nan nan nan nan nan nan nan nan nan nan nan nan nan nan nan nan